This is the latest recevied weather packets stored in our database for station/object OK1KKY-18. If no packets are shown the sender has not sent any weather packets the latest 10 day(s).
| Time | Temp. | Humidity | Pressure | Rain* | Wind** | Luminosity | Snow |
|---|---|---|---|---|---|---|---|
| 1777472128 | 8.89° C | 25% | 1027.1 hPa | - | - | - | - |
| 1777471528 | 10° C | 25% | 1027.2 hPa | - | - | - | - |
| 1777470928 | 8.33° C | 27% | 1027.3 hPa | - | - | - | - |
| 1777470328 | 9.44° C | 26% | 1026.9 hPa | - | - | - | - |
| 1777469728 | 9.44° C | 26% | 1027.2 hPa | - | - | - | - |
| 1777469128 | 10° C | 26% | 1026.9 hPa | - | - | - | - |
| 1777468528 | 9.44° C | 28% | 1026.9 hPa | - | - | - | - |
| 1777467928 | 10° C | 27% | 1026.8 hPa | - | - | - | - |
| 1777467328 | 8.89° C | 28% | 1027 hPa | - | - | - | - |
| 1777466731 | 8.89° C | 28% | 1026.7 hPa | - | - | - | - |
| 1777465528 | 9.44° C | 28% | 1026.8 hPa | - | - | - | - |
| 1777464336 | 7.78° C | 30% | 1026.6 hPa | - | - | - | - |
| 1777463730 | 8.89° C | 30% | 1026.7 hPa | - | - | - | - |
| 1777463126 | 8.33° C | 30% | 1026.6 hPa | - | - | - | - |
| 1777462528 | 8.33° C | 30% | 1026.5 hPa | - | - | - | - |
| 1777461927 | 8.33° C | 29% | 1026.5 hPa | - | - | - | - |
| 1777460727 | 8.33° C | 29% | 1026.5 hPa | - | - | - | - |
| 1777460135 | 8.33° C | 28% | 1026.6 hPa | - | - | - | - |
| 1777459529 | 7.78° C | 30% | 1026.7 hPa | - | - | - | - |
| 1777458927 | 7.78° C | 29% | 1026.6 hPa | - | - | - | - |
| 1777458327 | 7.78° C | 32% | 1026.6 hPa | - | - | - | - |
| 1777457730 | 7.22° C | 30% | 1026.5 hPa | - | - | - | - |
| 1777457127 | 7.78° C | 30% | 1026.6 hPa | - | - | - | - |
| 1777456527 | 7.78° C | 31% | 1026.6 hPa | - | - | - | - |
| 1777454727 | 7.22° C | 32% | 1026.6 hPa | - | - | - | - |
* Rain since midnight (hover to see other rain measurements)
** Current wind speed in m/s (hover to see current wind gust speed)